This demonstration page uses our WeatherBlox Daily Observations layout. Learn more.

Left ArrowRight Arrow

30.21309, -93.2044

Hourly Observations for January 12, 2022

Temp ( °F °C ) Dew Point ( °F °C ) Humidity (%) Winds ( mph kmh ) Pressure ( in mb ) Visibility ( mi km ) Precip ( " mm )
12:15 am 00:15 Cloudy 50 10.1 36 2 57 57 Calm 30.40 1029 10 16 0.00 0.00
12:35 am 00:35 Cloudy with Light Rain 50 10.1 37 2.5 60 60 Calm 30.39 1029 10 16 0.00 0.00
12:55 am 00:55 Cloudy 50 10.1 37 2.7 60 60 Calm 30.39 1029 10 16 0.00 0.00
1:15 am 01:15 Cloudy 51 10.4 37 2.8 60 60 Calm 30.39 1029 10 16 0.00 0.00
1:35 am 01:35 Cloudy 49 9.2 42 5.4 77 77 ESE 3 6 30.38 1029 10 16 0.00 0.00
1:55 am 01:55 Cloudy with Light Rain 48 8.9 42 5.5 79 79 S 3 6 30.39 1029 10 16 0.00 0.00
2:15 am 02:15 Cloudy 48 9 42 5.7 80 80 Calm 30.38 1029 10 16 0.00 0.00
2:35 am 02:35 Cloudy 49 9.3 40 4.7 73 73 Calm 30.38 1029 10 16 0.00 0.00
2:55 am 02:55 Cloudy 49 9.7 39 3.7 67 67 Calm 30.38 1029 10 16 0.00 0.00
3:15 am 03:15 Cloudy 50 10 37 3 62 62 Calm 30.38 1029 10 16 0.00 0.00
3:35 am 03:35 Cloudy 49 9.7 41 4.9 72 72 NW 5 7 30.38 1029 10 16 0.00 0.00
3:55 am 03:55 Cloudy 49 9.5 40 4.2 70 70 NNW 3 6 30.38 1029 10 16 0.00 0.00
4:15 am 04:15 Cloudy 49 9.7 39 3.7 67 67 NNW 3 6 30.37 1028 10 16 0.00 0.00
4:35 am 04:35 Cloudy 49 9.6 40 4.3 70 70 NW 3 6 30.36 1028 10 16 0.00 0.00
4:55 am 04:55 Cloudy 49 9.5 39 4 69 69 Calm 30.36 1028 10 16 0.00 0.00
5:15 am 05:15 Cloudy 49 9.4 40 4.2 70 70 Calm 30.35 1028 10 16 0.00 0.00
5:35 am 05:35 Cloudy 49 9.5 39 4.1 69 69 Calm 30.35 1028 10 16 0.00 0.00
6:00 am 06:00 Mostly Cloudy 48 9 43 6 82 82 Calm 30.35 1028 10 16 0.00 0.00
6:53 am 06:53 Mostly Cloudy 48 9 39 4 71 71 Calm 30.36 1028 10 16 0.00 0.00
7:55 am 07:55 Mostly Cloudy 48 9 39 4 71 71 Calm 30.36 1028 10 16 0.00 0.00
8:55 am 08:55 Cloudy 50 10 39 4 67 67 Calm 30.38 1029 10 16 0.00 0.00
9:47 am 09:47 Mostly Cloudy 52 11 37 3 58 58 ENE 5 7 30.38 1029 10 16 0.00 0.00
11:55 am 11:55 Mostly Cloudy 55 13 37 3 51 51 Calm 30.34 1027 10 16 0.00 0.00
12:53 pm 12:53 Mostly Sunny 59 15 34 1 39 39 S 5 7 30.29 1026 10 16 0.00 0.00
1:55 pm 13:55 Mostly Sunny 61 16 30 -1 31 31 Calm 30.26 1025 10 16 0.00 0.00
2:56 pm 14:56 Mostly Sunny 63 17 30 -1 30 30 Calm 30.25 1024 10 16 0.00 0.00
3:52 pm 15:52 Mostly Sunny 63 17 32 0 32 32 Calm 30.24 1024 10 16 0.00 0.00
4:53 pm 16:53 Mostly Sunny 63 17 30 -1 30 30 Calm 30.23 1024 10 16 0.00 0.00
5:50 pm 17:50 Mostly Clear 57 14 34 1 41 41 Calm 30.24 1024 10 16 0.00 0.00
6:54 pm 18:54 Mostly Clear 48 9 37 3 66 66 Calm 30.24 1024 10 16 0.00 0.00
7:51 pm 19:51 Mostly Clear 46 8 37 3 71 71 Calm 30.24 1024 10 16 0.00 0.00
8:47 pm 20:47 Mostly Clear 45 7 37 3 76 76 Calm 30.25 1024 10 16 0.00 0.00
9:53 pm 21:53 Mostly Clear 45 7 39 4 81 81 Calm 30.24 1024 10 16 0.00 0.00
10:15 pm 22:15 Clear 44 6.7 39 3.8 82 82 SSW 3 6 30.24 1024 10 16 0.00 0.00
10:35 pm 22:35 Clear 42 5.6 38 3.6 87 87 Calm 30.24 1024 10 16 0.00 0.00
10:55 pm 22:55 Clear 44 6.9 40 4.4 84 84 Calm 30.24 1024 10 16 0.00 0.00
11:15 pm 23:15 Clear 43 6.1 40 4.4 89 89 SSW 3 6 30.24 1024 10 16 0.00 0.00
11:35 pm 23:35 Clear 42 5.6 39 3.7 88 88 WSW 3 6 30.24 1024 10 16 0.00 0.00
11:55 pm 23:55 Clear 46 8 43 6 87 87 WSW 6 9 30.24 1024 10 16 0.00 0.00

Powered by AerisWeather